Time,TemperatureF,DewpointF,PressureIn,WindDirection,WindDirectionDegrees,WindSpeedMPH,WindSpeedGustMPH,Humidity,HourlyPrecipIn,Conditions,Clouds,dailyrainin,SoftwareType,DateUTC
2013-07-25 00:04:00,82.5,77.2,29.97,SE,145,9.3,17.3,84,0.00,CLR,,0.00,WeatherDisplay:10.37,2013-07-25 05:04:00,
2013-07-25 00:09:00,82.3,77.0,29.97,SE,136,11.7,15.4,84,0.00,CLR,,0.00,WeatherDisplay:10.37,2013-07-25 05:09:00,
2013-07-25 00:14:00,82.2,76.9,29.97,SE,131,10.6,16.1,84,0.00,CLR,,0.00,WeatherDisplay:10.37,2013-07-25 05:14:00,
2013-07-25 00:20:00,82.2,77.2,29.97,ESE,120,9.2,17.3,85,0.00,CLR,,0.00,WeatherDisplay:10.37,2013-07-25 05:20:00,
2013-07-25 00:25:00,82.3,77.3,29.97,SE,136,11.4,15.5,85,0.00,CLR,,0.00,WeatherDisplay:10.37,2013-07-25 05:25:00,
2013-07-25 00:30:00,82.3,77.7,29.97,SE,143,9.9,16.1,86,0.00,CLR,,0.00,WeatherDisplay:10.37,2013-07-25 05:30:00,
2013-07-25 00:35:00,82.1,77.5,29.97,ESE,121,12.5,18.4,86,0.00,CLR,,0.00,WeatherDisplay:10.37,2013-07-25 05:35:00,
2013-07-25 00:40:00,82.0,77.0,29.97,SE,131,13.1,17.3,85,0.00,CLR,,0.00,WeatherDisplay:10.37,2013-07-25 05:40:00,
2013-07-25 00:45:00,82.2,77.2,29.97,SSE,161,11.1,18.7,85,0.00,CLR,,0.00,WeatherDisplay:10.37,2013-07-25 05:45:00,
2013-07-25 00:50:00,82.1,77.1,29.97,ESE,120,11.6,18.0,85,0.00,CLR,,0.00,WeatherDisplay:10.37,2013-07-25 05:50:00,
2013-07-25 00:55:00,82.1,76.8,29.97,ESE,110,12.5,18.4,84,0.00,CLR,,0.00,WeatherDisplay:10.37,2013-07-25 05:55:00,
2013-07-25 01:00:00,82.2,76.9,29.97,SE,137,13.4,17.8,84,0.00,CLR,,0.00,WeatherDisplay:10.37,2013-07-25 06:00:00,
2013-07-25 01:05:00,82.1,76.8,29.98,SE,130,10.0,16.1,84,0.00,CLR,,0.00,WeatherDisplay:10.37,2013-07-25 06:05:00,
2013-07-25 01:10:00,82.1,77.1,29.98,SSE,151,10.5,15.8,85,0.00,CLR,,0.00,WeatherDisplay:10.37,2013-07-25 06:10:00,
2013-07-25 01:15:00,82.1,76.8,29.98,SSE,147,9.1,17.1,84,0.00,CLR,,0.00,WeatherDisplay:10.37,2013-07-25 06:15:00,
2013-07-25 01:20:00,82.0,76.7,29.97,SE,127,9.8,18.4,84,0.00,CLR,,0.00,WeatherDisplay:10.37,2013-07-25 06:20:00,
2013-07-25 01:25:00,81.9,76.2,29.98,SSE,164,11.9,17.2,83,0.00,CLR,,0.00,WeatherDisplay:10.37,2013-07-25 06:25:00,
2013-07-25 01:30:00,81.8,75.8,29.98,SSE,162,12.2,18.1,82,0.00,CLR,,0.00,WeatherDisplay:10.37,2013-07-25 06:30:00,
2013-07-25 01:35:00,82.0,76.3,29.98,SSE,162,9.8,18.4,83,0.00,CLR,,0.00,WeatherDisplay:10.37,2013-07-25 06:35:00,
2013-07-25 01:40:00,81.9,75.9,29.97,SSE,168,13.1,18.4,82,0.00,CLR,,0.00,WeatherDisplay:10.37,2013-07-25 06:40:00,
2013-07-25 01:45:00,82.0,76.0,29.97,SSE,155,12.7,17.3,82,0.00,CLR,,0.00,WeatherDisplay:10.37,2013-07-25 06:45:00,
2013-07-25 01:50:00,81.9,75.9,29.97,SE,136,11.4,19.6,82,0.00,CLR,,0.00,WeatherDisplay:10.37,2013-07-25 06:50:00,
2013-07-25 01:55:00,82.1,76.4,29.97,SE,128,10.7,17.3,83,0.00,CLR,,0.00,WeatherDisplay:10.37,2013-07-25 06:55:00,
2013-07-25 02:00:00,82.1,76.4,29.97,SSE,157,12.1,16.1,83,0.00,CLR,,0.00,WeatherDisplay:10.37,2013-07-25 07:00:00,
2013-07-25 02:06:00,82.1,76.4,29.98,SSE,157,10.7,17.1,83,0.00,CLR,,0.00,WeatherDisplay:10.37,2013-07-25 07:06:00,
2013-07-25 02:11:00,82.0,76.3,29.97,SE,133,10.8,17.3,83,0.00,CLR,,0.00,WeatherDisplay:10.37,2013-07-25 07:11:00,
2013-07-25 02:16:00,82.0,76.0,29.97,SSE,161,13.8,19.6,82,0.00,CLR,,0.00,WeatherDisplay:10.37,2013-07-25 07:16:00,
2013-07-25 02:21:00,81.9,76.2,29.97,SSE,147,12.3,17.3,83,0.00,CLR,,0.00,WeatherDisplay:10.37,2013-07-25 07:21:00,
2013-07-25 02:26:00,82.1,76.4,29.97,SE,131,11.2,16.1,83,0.00,CLR,,0.00,WeatherDisplay:10.37,2013-07-25 07:26:00,
2013-07-25 02:31:00,81.8,75.8,29.97,SSE,148,10.9,17.4,82,0.00,CLR,,0.00,WeatherDisplay:10.37,2013-07-25 07:31:00,
2013-07-25 02:36:00,81.9,76.2,29.97,SSE,165,12.0,17.5,83,0.00,CLR,,0.00,WeatherDisplay:10.37,2013-07-25 07:36:00,
2013-07-25 02:41:00,81.8,76.1,29.97,SE,143,10.3,17.5,83,0.00,CLR,,0.00,WeatherDisplay:10.37,2013-07-25 07:41:00,
2013-07-25 02:47:00,81.7,76.4,29.97,ESE,109,11.2,19.6,84,0.00,CLR,,0.00,WeatherDisplay:10.37,2013-07-25 07:47:00,
2013-07-25 02:52:00,81.7,76.0,29.97,South,171,12.0,16.1,83,0.00,CLR,,0.00,WeatherDisplay:10.37,2013-07-25 07:52:00,
2013-07-25 02:57:00,81.8,76.5,29.97,SSE,162,11.2,16.1,84,0.00,CLR,,0.00,WeatherDisplay:10.37,2013-07-25 07:57:00,
2013-07-25 03:02:00,81.8,76.5,29.97,SE,141,9.8,17.3,84,0.00,CLR,,0.00,WeatherDisplay:10.37,2013-07-25 08:02:00,
2013-07-25 03:07:00,81.7,76.4,29.97,South,188,8.5,13.8,84,0.00,CLR,,0.00,WeatherDisplay:10.37,2013-07-25 08:07:00,
2013-07-25 03:12:00,81.7,76.4,29.97,South,191,8.6,15.0,84,0.00,CLR,,0.00,WeatherDisplay:10.37,2013-07-25 08:12:00,
2013-07-25 03:17:00,81.9,76.9,29.97,SSE,150,6.9,13.2,85,0.00,CLR,,0.00,WeatherDisplay:10.37,2013-07-25 08:17:00,
2013-07-25 03:22:00,81.7,76.4,29.97,SSE,151,7.1,12.7,84,0.00,CLR,,0.00,WeatherDisplay:10.37,2013-07-25 08:22:00,
2013-07-25 03:27:00,81.8,76.5,29.97,South,174,7.0,13.2,84,0.00,CLR,,0.00,WeatherDisplay:10.37,2013-07-25 08:27:00,
2013-07-25 03:32:00,81.6,76.3,29.97,SE,136,7.6,16.1,84,0.00,CLR,,0.00,WeatherDisplay:10.37,2013-07-25 08:32:00,
2013-07-25 03:37:00,81.7,76.7,29.97,SSE,168,8.6,15.1,85,0.00,CLR,,0.00,WeatherDisplay:10.37,2013-07-25 08:37:00,
2013-07-25 03:42:00,81.6,76.6,29.97,South,176,8.6,15.0,85,0.00,CLR,,0.00,WeatherDisplay:10.37,2013-07-25 08:42:00,
2013-07-25 03:47:00,81.5,76.6,29.97,SE,138,9.4,16.1,85,0.00,CLR,,0.00,WeatherDisplay:10.37,2013-07-25 08:47:00,
2013-07-25 03:52:00,81.6,76.6,29.97,South,171,6.5,15.3,85,0.00,CLR,,0.00,WeatherDisplay:10.37,2013-07-25 08:52:00,
2013-07-25 03:57:00,81.7,77.1,29.97,South,174,6.2,8.3,86,0.00,CLR,,0.00,WeatherDisplay:10.37,2013-07-25 08:57:00,
2013-07-25 04:02:00,81.6,77.0,29.97,South,185,7.8,12.9,86,0.00,CLR,,0.00,WeatherDisplay:10.37,2013-07-25 09:02:00,
2013-07-25 04:07:00,81.5,76.9,29.97,South,176,8.2,12.9,86,0.00,CLR,,0.00,WeatherDisplay:10.37,2013-07-25 09:07:00,
2013-07-25 04:12:00,81.3,76.7,29.97,South,185,7.1,10.5,86,0.00,CLR,,0.00,WeatherDisplay:10.37,2013-07-25 09:12:00,
2013-07-25 04:17:00,81.5,77.3,29.97,SSE,154,7.7,11.9,87,0.00,CLR,,0.00,WeatherDisplay:10.37,2013-07-25 09:17:00,
2013-07-25 04:22:00,81.5,77.3,29.97,SSW,195,6.4,8.2,87,0.00,CLR,,0.00,WeatherDisplay:10.37,2013-07-25 09:22:00,
2013-07-25 04:27:00,81.4,77.2,29.97,SSE,165,7.7,10.5,87,0.00,CLR,,0.00,WeatherDisplay:10.37,2013-07-25 09:27:00,
2013-07-25 04:33:00,81.4,77.2,29.96,South,182,7.8,10.4,87,0.00,CLR,,0.00,WeatherDisplay:10.37,2013-07-25 09:33:00,
2013-07-25 04:38:00,81.3,77.1,29.97,South,185,6.9,9.2,87,0.00,CLR,,0.00,WeatherDisplay:10.37,2013-07-25 09:38:00,
2013-07-25 04:43:00,81.5,77.3,29.97,South,172,7.8,11.5,87,0.00,CLR,,0.00,WeatherDisplay:10.37,2013-07-25 09:43:00,
2013-07-25 04:48:00,81.5,77.3,29.97,SSE,167,8.3,10.4,87,0.00,CLR,,0.00,WeatherDisplay:10.37,2013-07-25 09:48:00,
2013-07-25 04:53:00,81.5,77.3,29.96,SSE,164,8.4,12.7,87,0.00,CLR,,0.00,WeatherDisplay:10.37,2013-07-25 09:53:00,
2013-07-25 04:58:00,81.5,77.6,29.97,SSE,147,8.6,12.7,88,0.00,CLR,,0.00,WeatherDisplay:10.37,2013-07-25 09:58:00,
2013-07-25 05:03:00,81.6,77.7,29.97,SSW,202,7.0,11.5,88,0.00,CLR,,0.00,WeatherDisplay:10.37,2013-07-25 10:03:00,
2013-07-25 05:08:00,81.5,77.6,29.97,SSW,198,6.6,11.5,88,0.00,CLR,,0.00,WeatherDisplay:10.37,2013-07-25 10:08:00,
2013-07-25 05:13:00,81.4,77.5,29.97,South,174,9.4,13.6,88,0.00,CLR,,0.00,WeatherDisplay:10.37,2013-07-25 10:13:00,
2013-07-25 05:18:00,81.5,77.3,29.97,South,179,8.3,13.8,87,0.00,CLR,,0.00,WeatherDisplay:10.37,2013-07-25 10:18:00,
2013-07-25 05:23:00,81.4,77.2,29.97,SSE,148,6.4,12.7,87,0.00,CLR,,0.00,WeatherDisplay:10.37,2013-07-25 10:23:00,
2013-07-25 05:28:00,81.4,77.2,29.97,South,184,8.7,12.7,87,0.00,CLR,,0.00,WeatherDisplay:10.37,2013-07-25 10:28:00,
2013-07-25 05:33:00,81.5,77.3,29.97,South,184,7.1,12.7,87,0.00,CLR,,0.00,WeatherDisplay:10.37,2013-07-25 10:33:00,
2013-07-25 05:38:00,81.6,77.4,29.97,South,191,5.4,15.0,87,0.00,CLR,,0.00,WeatherDisplay:10.37,2013-07-25 10:38:00,
2013-07-25 05:43:00,81.5,77.3,29.98,South,172,5.5,10.4,87,0.00,CLR,,0.00,WeatherDisplay:10.37,2013-07-25 10:43:00,
2013-07-25 05:49:00,81.6,77.4,29.98,SSW,202,7.3,8.1,87,0.00,CLR,,0.00,WeatherDisplay:10.37,2013-07-25 10:49:00,
2013-07-25 05:54:00,81.6,77.4,29.98,South,191,8.4,12.9,87,0.00,CLR,,0.00,WeatherDisplay:10.37,2013-07-25 10:54:00,
2013-07-25 05:59:00,81.5,77.3,29.98,South,191,7.8,9.2,87,0.00,CLR,,0.00,WeatherDisplay:10.37,2013-07-25 10:59:00,
2013-07-25 06:04:00,81.4,77.2,29.99,South,182,8.1,11.9,87,0.00,CLR,,0.00,WeatherDisplay:10.37,2013-07-25 11:04:00,
2013-07-25 06:09:00,81.6,77.4,29.99,South,171,7.1,10.0,87,0.00,CLR,,0.00,WeatherDisplay:10.37,2013-07-25 11:09:00,
2013-07-25 06:14:00,81.5,77.3,29.99,South,186,7.2,11.2,87,0.00,CLR,,0.00,WeatherDisplay:10.37,2013-07-25 11:14:00,
2013-07-25 06:19:00,81.5,77.6,29.99,South,182,6.0,12.2,88,0.00,CLR,,0.00,WeatherDisplay:10.37,2013-07-25 11:19:00,
2013-07-25 06:24:00,81.5,77.6,29.99,South,169,7.9,10.4,88,0.00,CLR,,0.00,WeatherDisplay:10.37,2013-07-25 11:24:00,
2013-07-25 06:29:00,81.5,77.6,29.99,South,185,7.5,11.5,88,0.00,CLR,,0.00,WeatherDisplay:10.37,2013-07-25 11:29:00,
2013-07-25 06:34:00,81.6,77.7,29.99,South,188,8.4,12.0,88,0.00,CLR,,0.00,WeatherDisplay:10.37,2013-07-25 11:34:00,
2013-07-25 06:39:00,81.5,77.6,29.99,SSE,157,6.4,10.4,88,0.00,CLR,,0.00,WeatherDisplay:10.37,2013-07-25 11:39:00,
2013-07-25 06:44:00,81.5,77.9,29.99,South,188,7.6,11.5,89,0.00,CLR,,0.00,WeatherDisplay:10.37,2013-07-25 11:44:00,
2013-07-25 06:49:00,81.4,77.8,29.99,South,182,8.8,13.1,89,0.00,CLR,,0.00,WeatherDisplay:10.37,2013-07-25 11:49:00,
2013-07-25 06:54:00,81.5,77.9,29.99,South,169,7.5,13.8,89,0.00,CLR,,0.00,WeatherDisplay:10.37,2013-07-25 11:54:00,
2013-07-25 06:59:00,81.6,78.0,29.99,SSW,193,6.6,10.4,89,0.00,CLR,,0.00,WeatherDisplay:10.37,2013-07-25 11:59:00,
2013-07-25 07:04:00,81.5,77.9,29.99,SE,140,8.1,11.5,89,0.00,CLR,,0.00,WeatherDisplay:10.37,2013-07-25 12:04:00,
2013-07-25 07:09:00,81.6,78.4,29.99,SE,140,9.2,12.7,90,0.00,CLR,,0.00,WeatherDisplay:10.37,2013-07-25 12:09:00,
2013-07-25 07:14:00,81.5,77.9,29.99,SSE,150,5.5,11.5,89,0.00,CLR,,0.00,WeatherDisplay:10.37,2013-07-25 12:14:00,
2013-07-25 07:19:00,81.5,77.9,29.99,South,178,9.1,13.1,89,0.00,CLR,,0.00,WeatherDisplay:10.37,2013-07-25 12:19:00,
2013-07-25 07:24:00,81.6,78.4,29.99,SSE,157,6.7,11.5,90,0.00,CLR,,0.00,WeatherDisplay:10.37,2013-07-25 12:24:00,
2013-07-25 07:29:00,81.6,78.4,29.99,South,178,5.6,11.5,90,0.00,CLR,,0.00,WeatherDisplay:10.37,2013-07-25 12:29:00,
2013-07-25 07:34:00,81.5,78.3,29.99,SSE,164,5.9,10.5,90,0.00,CLR,,0.00,WeatherDisplay:10.37,2013-07-25 12:34:00,
2013-07-25 07:39:00,81.5,78.3,29.99,SSE,152,6.9,10.9,90,0.00,CLR,,0.00,WeatherDisplay:10.37,2013-07-25 12:39:00,
2013-07-25 07:44:00,81.5,77.9,29.99,South,184,8.1,11.6,89,0.00,CLR,,0.00,WeatherDisplay:10.37,2013-07-25 12:44:00,
2013-07-25 07:49:00,81.7,78.1,29.99,South,174,8.6,11.5,89,0.00,CLR,,0.00,WeatherDisplay:10.37,2013-07-25 12:49:00,
2013-07-25 07:54:00,81.7,78.1,29.99,South,172,6.5,11.5,89,0.00,CLR,,0.00,WeatherDisplay:10.37,2013-07-25 12:54:00,
2013-07-25 07:59:00,81.8,78.2,30.00,South,171,5.6,12.7,89,0.00,CLR,,0.00,WeatherDisplay:10.37,2013-07-25 12:59:00,
2013-07-25 08:04:00,81.9,78.3,30.00,SSE,167,7.9,11.9,89,0.00,CLR,,0.00,WeatherDisplay:10.37,2013-07-25 13:04:00,
2013-07-25 08:09:00,81.8,78.2,30.00,South,188,6.5,11.5,89,0.00,CLR,,0.00,WeatherDisplay:10.37,2013-07-25 13:09:00,
2013-07-25 08:14:00,82.0,78.4,30.00,SSE,165,6.9,10.4,89,0.00,CLR,,0.00,WeatherDisplay:10.37,2013-07-25 13:14:00,
2013-07-25 08:19:00,82.1,78.5,30.00,SSE,158,6.0,11.5,89,0.00,CLR,,0.00,WeatherDisplay:10.37,2013-07-25 13:19:00,
2013-07-25 08:24:00,82.0,78.1,30.00,South,182,8.7,12.1,88,0.00,CLR,,0.00,WeatherDisplay:10.37,2013-07-25 13:24:00,
2013-07-25 08:29:00,82.1,78.2,30.00,South,178,6.3,13.8,88,0.00,CLR,,0.00,WeatherDisplay:10.37,2013-07-25 13:29:00,
2013-07-25 08:34:00,82.1,78.2,30.00,South,186,7.4,11.9,88,0.00,CLR,,0.00,WeatherDisplay:10.37,2013-07-25 13:34:00,
2013-07-25 08:40:00,82.3,78.4,30.00,South,181,7.6,10.4,88,0.00,CLR,,0.00,WeatherDisplay:10.37,2013-07-25 13:40:00,
2013-07-25 08:45:00,82.5,78.6,30.00,SSE,168,6.3,9.2,88,0.00,CLR,,0.00,WeatherDisplay:10.37,2013-07-25 13:45:00,
2013-07-25 08:50:00,82.6,78.7,30.00,South,179,7.5,10.4,88,0.00,CLR,,0.00,WeatherDisplay:10.37,2013-07-25 13:50:00,
2013-07-25 08:55:00,82.8,78.5,30.00,SE,145,5.9,10.4,87,0.00,CLR,,0.00,WeatherDisplay:10.37,2013-07-25 13:55:00,
2013-07-25 09:00:00,82.9,78.3,30.00,SE,145,7.6,11.5,86,0.00,CLR,,0.00,WeatherDisplay:10.37,2013-07-25 14:00:00,
2013-07-25 09:05:00,83.2,78.2,30.00,SSE,167,7.6,10.6,85,0.00,CLR,,0.00,WeatherDisplay:10.37,2013-07-25 14:05:00,
2013-07-25 09:10:00,83.4,78.8,30.00,South,174,5.6,11.5,86,0.00,CLR,,0.00,WeatherDisplay:10.37,2013-07-25 14:10:00,
2013-07-25 09:15:00,83.5,78.2,30.00,SSE,167,8.2,11.9,84,0.00,CLR,,0.00,WeatherDisplay:10.37,2013-07-25 14:15:00,
2013-07-25 09:20:00,83.5,77.4,30.01,SSE,147,8.3,13.8,82,0.00,CLR,,0.00,WeatherDisplay:10.37,2013-07-25 14:20:00,
2013-07-25 09:25:00,83.9,77.8,30.00,South,189,6.4,9.2,82,0.00,CLR,,0.00,WeatherDisplay:10.37,2013-07-25 14:25:00,
2013-07-25 09:30:00,83.9,77.8,30.00,South,188,5.5,11.9,82,0.00,CLR,,0.00,WeatherDisplay:10.37,2013-07-25 14:30:00,
2013-07-25 09:35:00,84.1,77.6,30.00,SSW,203,8.0,13.1,81,0.00,CLR,,0.00,WeatherDisplay:10.37,2013-07-25 14:35:00,
2013-07-25 09:40:00,84.4,77.6,30.01,SSE,162,8.4,12.4,80,0.00,CLR,,0.00,WeatherDisplay:10.37,2013-07-25 14:40:00,
2013-07-25 09:46:00,84.5,77.6,30.01,South,189,7.3,11.5,80,0.00,CLR,,0.00,WeatherDisplay:10.37,2013-07-25 14:46:00,
2013-07-25 09:51:00,84.7,77.5,30.01,SSE,160,7.6,13.8,79,0.00,CLR,,0.00,WeatherDisplay:10.37,2013-07-25 14:51:00,
2013-07-25 09:56:00,84.7,77.5,30.01,South,171,7.3,10.4,79,0.00,CLR,,0.00,WeatherDisplay:10.37,2013-07-25 14:56:00,
2013-07-25 10:01:00,84.8,77.2,30.01,SSE,158,8.1,11.5,78,0.00,CLR,,0.00,WeatherDisplay:10.37,2013-07-25 15:01:00,
2013-07-25 10:06:00,84.8,77.6,30.01,SSE,167,6.2,10.4,79,0.00,CLR,,0.00,WeatherDisplay:10.37,2013-07-25 15:06:00,
2013-07-25 10:11:00,84.7,77.5,30.01,SE,141,7.4,11.5,79,0.00,CLR,,0.00,WeatherDisplay:10.37,2013-07-25 15:11:00,
2013-07-25 10:17:00,84.7,77.1,30.01,South,175,8.3,11.5,78,0.00,CLR,,0.00,WeatherDisplay:10.37,2013-07-25 15:17:00,
2013-07-25 10:22:00,84.9,77.3,30.01,SSE,167,8.2,11.9,78,0.00,CLR,,0.00,WeatherDisplay:10.37,2013-07-25 15:22:00,
2013-07-25 10:27:00,85.0,77.0,30.01,SE,143,7.8,13.8,77,0.00,CLR,,0.00,WeatherDisplay:10.37,2013-07-25 15:27:00,
2013-07-25 10:32:00,85.0,77.0,30.02,SSE,152,7.9,10.4,77,0.00,CLR,,0.00,WeatherDisplay:10.37,2013-07-25 15:32:00,
2013-07-25 10:37:00,85.3,77.3,30.02,South,174,8.4,11.2,77,0.00,CLR,,0.00,WeatherDisplay:10.37,2013-07-25 15:37:00,
2013-07-25 10:42:00,85.3,76.9,30.02,SSE,157,6.1,10.4,76,0.00,CLR,,0.00,WeatherDisplay:10.37,2013-07-25 15:42:00,
2013-07-25 10:47:00,85.5,77.1,30.02,SSE,148,7.1,11.5,76,0.00,CLR,,0.00,WeatherDisplay:10.37,2013-07-25 15:47:00,
2013-07-25 10:52:00,85.5,77.1,30.02,SSE,158,6.4,11.5,76,0.00,CLR,,0.00,WeatherDisplay:10.37,2013-07-25 15:52:00,
2013-07-25 10:57:00,85.6,77.2,30.02,SSE,161,9.5,12.2,76,0.00,CLR,,0.00,WeatherDisplay:10.37,2013-07-25 15:57:00,
2013-07-25 11:03:00,85.5,77.1,30.02,SSE,160,6.3,11.5,76,0.00,CLR,,0.00,WeatherDisplay:10.37,2013-07-25 16:03:00,
2013-07-25 11:08:00,85.8,76.5,30.02,SE,137,8.5,11.8,74,0.00,CLR,,0.00,WeatherDisplay:10.37,2013-07-25 16:08:00,
2013-07-25 11:13:00,86.1,76.8,30.02,SE,140,8.4,11.0,74,0.00,CLR,,0.00,WeatherDisplay:10.37,2013-07-25 16:13:00,
2013-07-25 11:18:00,86.2,77.3,30.01,SE,137,7.8,12.0,75,0.00,CLR,,0.00,WeatherDisplay:10.37,2013-07-25 16:18:00,
2013-07-25 11:23:00,86.3,77.0,30.01,SSE,151,8.0,11.5,74,0.00,CLR,,0.00,WeatherDisplay:10.37,2013-07-25 16:23:00,
2013-07-25 11:28:00,86.5,77.2,30.02,South,176,7.3,9.2,74,0.00,CLR,,0.00,WeatherDisplay:10.37,2013-07-25 16:28:00,
2013-07-25 11:33:00,86.6,76.5,30.02,South,191,7.2,9.5,72,0.00,CLR,,0.00,WeatherDisplay:10.37,2013-07-25 16:33:00,
2013-07-25 11:38:00,86.5,76.8,30.02,SE,140,7.1,11.5,73,0.00,CLR,,0.00,WeatherDisplay:10.37,2013-07-25 16:38:00,
2013-07-25 11:43:00,86.5,76.4,30.01,South,174,7.8,11.5,72,0.00,CLR,,0.00,WeatherDisplay:10.37,2013-07-25 16:43:00,
2013-07-25 11:48:00,86.7,77.0,30.02,SSE,154,7.3,12.7,73,0.00,CLR,,0.00,WeatherDisplay:10.37,2013-07-25 16:48:00,
2013-07-25 11:53:00,86.9,76.8,30.01,South,172,7.2,10.8,72,0.00,CLR,,0.00,WeatherDisplay:10.37,2013-07-25 16:53:00,
2013-07-25 11:59:00,87.0,76.9,30.01,South,171,8.9,12.7,72,0.00,CLR,,0.00,WeatherDisplay:10.37,2013-07-25 16:59:00,
2013-07-25 12:04:00,87.0,76.9,30.01,SSE,155,6.9,10.4,72,0.00,CLR,,0.00,WeatherDisplay:10.37,2013-07-25 17:04:00,
2013-07-25 12:09:00,87.0,76.5,30.01,SSE,155,7.6,13.8,71,0.00,CLR,,0.00,WeatherDisplay:10.37,2013-07-25 17:09:00,
2013-07-25 12:14:00,86.8,76.7,30.01,South,182,7.1,11.7,72,0.00,CLR,,0.00,WeatherDisplay:10.37,2013-07-25 17:14:00,
2013-07-25 12:19:00,86.9,76.8,30.01,SE,140,7.5,11.9,72,0.00,CLR,,0.00,WeatherDisplay:10.37,2013-07-25 17:19:00,
2013-07-25 12:24:00,87.1,76.5,30.01,SE,137,8.4,12.7,71,0.00,CLR,,0.00,WeatherDisplay:10.37,2013-07-25 17:24:00,
2013-07-25 12:29:00,87.2,76.6,30.01,SSE,162,7.0,10.4,71,0.00,CLR,,0.00,WeatherDisplay:10.37,2013-07-25 17:29:00,
2013-07-25 12:34:00,87.2,76.6,30.01,SSE,148,9.4,11.6,71,0.00,CLR,,0.00,WeatherDisplay:10.37,2013-07-25 17:34:00,
2013-07-25 12:39:00,87.3,76.3,30.02,SE,126,9.0,12.7,70,0.00,CLR,,0.00,WeatherDisplay:10.37,2013-07-25 17:39:00,
2013-07-25 12:44:00,87.4,76.4,30.02,SE,143,7.7,11.5,70,0.00,CLR,,0.00,WeatherDisplay:10.37,2013-07-25 17:44:00,
2013-07-25 12:49:00,87.6,77.0,30.02,ESE,113,8.5,11.9,71,0.00,CLR,,0.00,WeatherDisplay:10.37,2013-07-25 17:49:00,
2013-07-25 12:54:00,87.6,76.6,30.02,ESE,120,9.6,12.7,70,0.00,CLR,,0.00,WeatherDisplay:10.37,2013-07-25 17:54:00,
2013-07-25 12:59:00,87.6,77.0,30.02,SE,143,7.2,11.5,71,0.00,CLR,,0.00,WeatherDisplay:10.37,2013-07-25 17:59:00,
2013-07-25 13:04:00,87.5,76.9,30.02,ESE,114,7.9,15.2,71,0.00,CLR,,0.00,WeatherDisplay:10.37,2013-07-25 18:04:00,
2013-07-25 13:09:00,87.6,76.6,30.02,SE,144,9.7,15.2,70,0.00,CLR,,0.00,WeatherDisplay:10.37,2013-07-25 18:09:00,
2013-07-25 13:14:00,87.5,76.5,30.02,SSE,154,9.1,14.0,70,0.00,CLR,,0.00,WeatherDisplay:10.37,2013-07-25 18:14:00,
2013-07-25 13:19:00,87.4,76.8,30.02,SSE,160,8.8,12.7,71,0.00,CLR,,0.00,WeatherDisplay:10.37,2013-07-25 18:19:00,
2013-07-25 13:24:00,87.4,76.4,30.02,SSE,151,7.8,13.8,70,0.00,CLR,,0.00,WeatherDisplay:10.37,2013-07-25 18:24:00,
2013-07-25 13:29:00,87.6,76.2,30.02,SE,136,9.7,13.8,69,0.00,CLR,,0.00,WeatherDisplay:10.37,2013-07-25 18:29:00,
2013-07-25 13:34:00,87.9,76.5,30.02,ESE,120,8.5,13.8,69,0.00,CLR,,0.00,WeatherDisplay:10.37,2013-07-25 18:34:00,
2013-07-25 13:39:00,88.0,76.5,30.02,SE,133,9.7,11.9,69,0.00,CLR,,0.00,WeatherDisplay:10.37,2013-07-25 18:39:00,
2013-07-25 13:44:00,88.0,77.0,30.02,SE,141,10.3,13.8,70,0.00,CLR,,0.00,WeatherDisplay:10.37,2013-07-25 18:44:00,
2013-07-25 13:49:00,88.1,77.1,30.02,SE,138,6.8,12.7,70,0.00,CLR,,0.00,WeatherDisplay:10.37,2013-07-25 18:49:00,
2013-07-25 13:54:00,88.2,76.3,30.02,ESE,104,9.1,12.7,68,0.00,CLR,,0.00,WeatherDisplay:10.37,2013-07-25 18:54:00,
2013-07-25 13:59:00,88.7,77.2,30.02,ESE,121,8.8,12.2,69,0.00,CLR,,0.00,WeatherDisplay:10.37,2013-07-25 18:59:00,
2013-07-25 14:04:00,88.6,76.7,30.02,SE,140,7.7,12.7,68,0.00,CLR,,0.00,WeatherDisplay:10.37,2013-07-25 19:04:00,
2013-07-25 14:09:00,88.4,76.5,30.02,SE,127,9.6,12.7,68,0.00,CLR,,0.00,WeatherDisplay:10.37,2013-07-25 19:09:00,
2013-07-25 14:14:00,88.0,76.5,30.02,SE,138,9.0,12.7,69,0.00,CLR,,0.00,WeatherDisplay:10.37,2013-07-25 19:14:00,
2013-07-25 14:19:00,88.3,76.8,30.02,SE,130,7.4,10.4,69,0.00,CLR,,0.00,WeatherDisplay:10.37,2013-07-25 19:19:00,
2013-07-25 14:25:00,88.5,76.6,30.01,ESE,121,10.4,14.2,68,0.00,CLR,,0.00,WeatherDisplay:10.37,2013-07-25 19:25:00,
2013-07-25 14:30:00,88.7,76.3,30.01,SE,134,8.1,13.8,67,0.00,CLR,,0.00,WeatherDisplay:10.37,2013-07-25 19:30:00,
2013-07-25 14:35:00,89.0,76.6,30.01,SE,145,8.0,10.4,67,0.00,CLR,,0.00,WeatherDisplay:10.37,2013-07-25 19:35:00,
2013-07-25 14:40:00,89.2,76.8,30.01,ESE,119,7.7,12.7,67,0.00,CLR,,0.00,WeatherDisplay:10.37,2013-07-25 19:40:00,
2013-07-25 14:45:00,88.8,76.0,30.01,ESE,120,9.5,12.7,66,0.00,CLR,,0.00,WeatherDisplay:10.37,2013-07-25 19:45:00,
2013-07-25 14:50:00,89.0,76.6,30.01,SSE,147,7.9,15.0,67,0.00,CLR,,0.00,WeatherDisplay:10.37,2013-07-25 19:50:00,
2013-07-25 14:55:00,89.2,76.8,30.01,SE,131,8.9,13.8,67,0.00,CLR,,0.00,WeatherDisplay:10.37,2013-07-25 19:55:00,
2013-07-25 15:00:00,89.6,76.7,30.00,SSE,167,9.4,15.5,66,0.00,CLR,,0.00,WeatherDisplay:10.37,2013-07-25 20:00:00,
2013-07-25 15:05:00,89.7,76.8,30.00,East,99,8.2,15.0,66,0.00,CLR,,0.00,WeatherDisplay:10.37,2013-07-25 20:05:00,
2013-07-25 15:10:00,89.8,76.5,30.00,ESE,109,7.4,15.0,65,0.00,CLR,,0.00,WeatherDisplay:10.37,2013-07-25 20:10:00,
2013-07-25 15:15:00,89.6,76.3,30.00,ESE,114,9.2,14.5,65,0.00,CLR,,0.00,WeatherDisplay:10.37,2013-07-25 20:15:00,
2013-07-25 15:20:00,89.8,76.0,30.00,ESE,106,9.4,14.5,64,0.00,CLR,,0.00,WeatherDisplay:10.37,2013-07-25 20:20:00,
2013-07-25 15:25:00,89.9,76.1,30.00,East,97,7.6,12.7,64,0.00,CLR,,0.00,WeatherDisplay:10.37,2013-07-25 20:25:00,
2013-07-25 15:30:00,89.9,75.6,30.00,SE,143,8.3,13.8,63,0.00,CLR,,0.00,WeatherDisplay:10.37,2013-07-25 20:30:00,
2013-07-25 15:35:00,89.8,75.5,30.00,SE,136,10.0,14.2,63,0.00,CLR,,0.00,WeatherDisplay:10.37,2013-07-25 20:35:00,
2013-07-25 15:40:00,89.5,76.6,30.00,ESE,123,11.3,17.5,66,0.00,CLR,,0.00,WeatherDisplay:10.37,2013-07-25 20:40:00,
2013-07-25 15:45:00,89.0,76.2,30.00,SSE,152,10.3,17.3,66,0.00,CLR,,0.00,WeatherDisplay:10.37,2013-07-25 20:45:00,
2013-07-25 15:50:00,88.8,76.9,30.00,SE,133,11.6,16.5,68,0.00,CLR,,0.00,WeatherDisplay:10.37,2013-07-25 20:50:00,
2013-07-25 15:55:00,88.8,76.4,30.00,SSE,155,11.1,16.5,67,0.00,CLR,,0.00,WeatherDisplay:10.37,2013-07-25 20:55:00,
2013-07-25 16:00:00,88.5,76.1,30.00,ESE,120,9.2,13.8,67,0.00,CLR,,0.00,WeatherDisplay:10.37,2013-07-25 21:00:00,
2013-07-25 16:05:00,88.6,76.2,30.00,SE,124,11.0,16.3,67,0.00,CLR,,0.00,WeatherDisplay:10.37,2013-07-25 21:05:00,
2013-07-25 16:10:00,89.1,76.3,29.99,ESE,112,7.8,17.3,66,0.00,CLR,,0.00,WeatherDisplay:10.37,2013-07-25 21:10:00,
2013-07-25 16:15:00,89.7,76.4,29.99,ESE,123,12.3,18.4,65,0.00,CLR,,0.00,WeatherDisplay:10.37,2013-07-25 21:15:00,
2013-07-25 16:20:00,89.5,76.6,30.00,SE,130,11.1,17.1,66,0.00,CLR,,0.00,WeatherDisplay:10.37,2013-07-25 21:20:00,
2013-07-25 16:25:00,89.1,75.3,30.00,SE,137,10.2,17.3,64,0.00,CLR,,0.00,WeatherDisplay:10.37,2013-07-25 21:25:00,
2013-07-25 16:31:00,89.6,76.3,30.00,SSE,150,10.0,18.4,65,0.00,CLR,,0.00,WeatherDisplay:10.37,2013-07-25 21:31:00,
2013-07-25 16:36:00,89.5,75.2,30.00,ESE,119,8.1,13.8,63,0.00,CLR,,0.00,WeatherDisplay:10.37,2013-07-25 21:36:00,
2013-07-25 16:41:00,89.2,75.0,30.00,ESE,120,11.8,17.3,63,0.00,CLR,,0.00,WeatherDisplay:10.37,2013-07-25 21:41:00,
2013-07-25 16:46:00,89.0,74.8,30.00,SE,130,11.1,19.6,63,0.00,CLR,,0.00,WeatherDisplay:10.37,2013-07-25 21:46:00,
2013-07-25 16:51:00,89.0,76.2,30.00,East,92,12.5,19.6,66,0.00,CLR,,0.00,WeatherDisplay:10.37,2013-07-25 21:51:00,
2013-07-25 16:56:00,89.1,75.8,30.00,SE,128,11.1,17.8,65,0.00,CLR,,0.00,WeatherDisplay:10.37,2013-07-25 21:56:00,
2013-07-25 17:01:00,89.1,76.3,30.00,SE,140,10.5,18.4,66,0.00,CLR,,0.00,WeatherDisplay:10.37,2013-07-25 22:01:00,
2013-07-25 17:06:00,88.7,76.8,30.00,SE,128,11.1,17.3,68,0.00,CLR,,0.00,WeatherDisplay:10.37,2013-07-25 22:06:00,
2013-07-25 17:11:00,88.6,76.2,30.00,ESE,109,10.3,17.3,67,0.00,CLR,,0.00,WeatherDisplay:10.37,2013-07-25 22:11:00,
2013-07-25 17:16:00,88.5,76.6,29.99,ESE,119,11.9,20.7,68,0.00,CLR,,0.00,WeatherDisplay:10.37,2013-07-25 22:16:00,
2013-07-25 17:21:00,88.1,77.5,29.99,SE,144,10.7,16.1,71,0.00,CLR,,0.00,WeatherDisplay:10.37,2013-07-25 22:21:00,
2013-07-25 17:26:00,88.2,77.2,29.99,East,88,10.1,18.4,70,0.00,CLR,,0.00,WeatherDisplay:10.37,2013-07-25 22:26:00,
2013-07-25 17:31:00,88.0,75.7,30.00,East,96,12.8,18.4,67,0.00,CLR,,0.00,WeatherDisplay:10.37,2013-07-25 22:31:00,
2013-07-25 17:36:00,88.3,77.3,30.00,SE,124,10.0,16.7,70,0.00,CLR,,0.00,WeatherDisplay:10.37,2013-07-25 22:36:00,
2013-07-25 17:41:00,88.3,77.3,29.99,SE,140,10.0,14.7,70,0.00,CLR,,0.00,WeatherDisplay:10.37,2013-07-25 22:41:00,
2013-07-25 17:47:00,88.1,76.6,29.99,SE,124,10.3,18.4,69,0.00,CLR,,0.00,WeatherDisplay:10.37,2013-07-25 22:47:00,
2013-07-25 17:52:00,88.0,77.4,29.99,East,100,10.0,16.1,71,0.00,CLR,,0.00,WeatherDisplay:10.37,2013-07-25 22:52:00,
2013-07-25 17:57:00,88.2,77.2,29.99,SE,131,11.8,16.2,70,0.00,CLR,,0.00,WeatherDisplay:10.37,2013-07-25 22:57:00,
2013-07-25 18:02:00,88.1,77.5,29.99,East,96,8.6,16.5,71,0.00,CLR,,0.00,WeatherDisplay:10.37,2013-07-25 23:02:00,
2013-07-25 18:07:00,88.2,76.7,29.99,East,80,10.3,18.5,69,0.00,CLR,,0.00,WeatherDisplay:10.37,2013-07-25 23:07:00,
2013-07-25 18:12:00,88.2,77.2,29.99,ESE,117,10.4,18.0,70,0.00,CLR,,0.00,WeatherDisplay:10.37,2013-07-25 23:12:00,
2013-07-25 18:17:00,87.8,75.9,29.99,ESE,112,11.7,17.3,68,0.00,CLR,,0.00,WeatherDisplay:10.37,2013-07-25 23:17:00,
2013-07-25 18:22:00,87.5,76.9,29.99,SE,137,9.4,17.3,71,0.00,CLR,,0.00,WeatherDisplay:10.37,2013-07-25 23:22:00,
2013-07-25 18:27:00,87.3,77.2,29.99,SE,140,10.6,16.3,72,0.00,CLR,,0.00,WeatherDisplay:10.37,2013-07-25 23:27:00,
2013-07-25 18:32:00,87.0,76.9,29.99,ESE,113,10.7,15.6,72,0.00,CLR,,0.00,WeatherDisplay:10.37,2013-07-25 23:32:00,
2013-07-25 18:37:00,87.0,76.9,29.99,SE,126,11.6,16.8,72,0.00,CLR,,0.00,WeatherDisplay:10.37,2013-07-25 23:37:00,
2013-07-25 18:42:00,87.2,76.6,29.99,ESE,104,10.2,15.0,71,0.00,CLR,,0.00,WeatherDisplay:10.37,2013-07-25 23:42:00,
2013-07-25 18:48:00,86.8,76.7,29.99,SE,143,9.2,16.1,72,0.00,CLR,,0.00,WeatherDisplay:10.37,2013-07-25 23:48:00,
2013-07-25 18:53:00,86.9,77.6,29.99,SE,144,10.1,15.2,74,0.00,CLR,,0.00,WeatherDisplay:10.37,2013-07-25 23:53:00,
2013-07-25 18:58:00,86.8,76.7,29.99,ESE,119,11.1,19.6,72,0.00,CLR,,0.00,WeatherDisplay:10.37,2013-07-25 23:58:00,
2013-07-25 19:03:00,86.6,77.7,29.99,ESE,110,12.1,17.3,75,0.00,CLR,,0.00,WeatherDisplay:10.37,2013-07-26 00:03:00,
2013-07-25 19:08:00,86.5,78.0,29.99,ESE,112,11.6,18.1,76,0.00,CLR,,0.00,WeatherDisplay:10.37,2013-07-26 00:08:00,
2013-07-25 19:13:00,86.7,78.2,29.99,SE,124,8.5,16.1,76,0.00,CLR,,0.00,WeatherDisplay:10.37,2013-07-26 00:13:00,
2013-07-25 19:18:00,86.4,77.9,29.99,SE,127,10.5,15.0,76,0.00,CLR,,0.00,WeatherDisplay:10.37,2013-07-26 00:18:00,
2013-07-25 19:23:00,86.6,77.3,29.98,ESE,113,11.2,18.4,74,0.00,CLR,,0.00,WeatherDisplay:10.37,2013-07-26 00:23:00,
2013-07-25 19:28:00,86.3,78.2,29.99,SSE,157,11.1,18.0,77,0.00,CLR,,0.00,WeatherDisplay:10.37,2013-07-26 00:28:00,
2013-07-25 19:33:00,85.9,77.8,29.99,SE,134,11.5,16.1,77,0.00,CLR,,0.00,WeatherDisplay:10.37,2013-07-26 00:33:00,
2013-07-25 19:38:00,85.8,78.1,29.99,SE,141,12.2,18.4,78,0.00,CLR,,0.00,WeatherDisplay:10.37,2013-07-26 00:38:00,
2013-07-25 19:43:00,85.7,78.0,29.99,ESE,120,11.9,18.4,78,0.00,CLR,,0.00,WeatherDisplay:10.37,2013-07-26 00:43:00,
2013-07-25 19:48:00,85.5,77.9,29.99,SE,136,11.3,18.4,78,0.00,CLR,,0.00,WeatherDisplay:10.37,2013-07-26 00:48:00,
2013-07-25 19:53:00,85.3,78.4,29.99,SE,137,10.2,17.9,80,0.00,CLR,,0.00,WeatherDisplay:10.37,2013-07-26 00:53:00,
2013-07-25 19:58:00,84.9,78.8,29.99,ESE,116,9.8,19.6,82,0.00,CLR,,0.00,WeatherDisplay:10.37,2013-07-26 00:58:00,
2013-07-25 20:03:00,84.8,78.7,29.99,ESE,116,10.6,18.4,82,0.00,CLR,,0.00,WeatherDisplay:10.37,2013-07-26 01:03:00,
2013-07-25 20:08:00,84.6,78.9,29.99,ESE,113,11.6,18.4,83,0.00,CLR,,0.00,WeatherDisplay:10.37,2013-07-26 01:08:00,
2013-07-25 20:13:00,84.4,78.7,29.99,SE,127,11.0,18.4,83,0.00,CLR,,0.00,WeatherDisplay:10.37,2013-07-26 01:13:00,
2013-07-25 20:18:00,84.4,79.0,29.99,SE,131,9.1,18.0,84,0.00,CLR,,0.00,WeatherDisplay:10.37,2013-07-26 01:18:00,
2013-07-25 20:23:00,84.2,78.8,29.99,SSE,164,11.1,18.9,84,0.00,CLR,,0.00,WeatherDisplay:10.37,2013-07-26 01:23:00,
2013-07-25 20:28:00,84.3,79.3,29.99,SE,131,11.9,16.1,85,0.00,CLR,,0.00,WeatherDisplay:10.37,2013-07-26 01:28:00,
2013-07-25 20:33:00,84.1,79.5,30.00,ESE,119,9.5,16.1,86,0.00,CLR,,0.00,WeatherDisplay:10.37,2013-07-26 01:33:00,
2013-07-25 20:38:00,84.0,79.4,30.00,SE,136,14.5,18.6,86,0.00,CLR,,0.00,WeatherDisplay:10.37,2013-07-26 01:38:00,
2013-07-25 20:43:00,84.0,79.7,30.00,ESE,121,11.6,17.5,87,0.00,CLR,,0.00,WeatherDisplay:10.37,2013-07-26 01:43:00,
2013-07-25 20:48:00,83.9,79.6,30.00,ESE,107,11.0,17.5,87,0.00,CLR,,0.00,WeatherDisplay:10.37,2013-07-26 01:48:00,
2013-07-25 20:53:00,83.7,79.1,30.00,SE,144,12.8,18.4,86,0.00,CLR,,0.00,WeatherDisplay:10.37,2013-07-26 01:53:00,
2013-07-25 20:58:00,83.8,78.8,30.00,SE,127,12.0,16.1,85,0.00,CLR,,0.00,WeatherDisplay:10.37,2013-07-26 01:58:00,
2013-07-25 21:03:00,83.8,79.2,30.00,SSE,152,12.8,20.7,86,0.00,CLR,,0.00,WeatherDisplay:10.37,2013-07-26 02:03:00,
2013-07-25 21:08:00,83.7,78.7,30.00,SE,144,12.3,20.8,85,0.00,CLR,,0.00,WeatherDisplay:10.37,2013-07-26 02:08:00,
2013-07-25 21:13:00,83.7,79.1,30.00,SE,145,11.8,17.3,86,0.00,CLR,,0.00,WeatherDisplay:10.37,2013-07-26 02:13:00,
2013-07-25 21:18:00,83.9,79.6,30.00,SSE,155,11.2,16.1,87,0.00,CLR,,0.00,WeatherDisplay:10.37,2013-07-26 02:18:00,
2013-07-25 21:23:00,83.7,79.4,30.00,SE,131,11.8,19.0,87,0.00,CLR,,0.00,WeatherDisplay:10.37,2013-07-26 02:23:00,
2013-07-25 21:29:00,83.6,79.3,30.00,ESE,113,12.6,17.3,87,0.00,CLR,,0.00,WeatherDisplay:10.37,2013-07-26 02:29:00,
2013-07-25 21:34:00,83.5,79.2,30.00,SE,130,13.9,20.0,87,0.00,CLR,,0.00,WeatherDisplay:10.37,2013-07-26 02:34:00,
2013-07-25 21:39:00,83.5,79.6,30.00,ESE,116,15.1,19.8,88,0.00,CLR,,0.00,WeatherDisplay:10.37,2013-07-26 02:39:00,
2013-07-25 21:44:00,83.4,79.1,30.00,SSE,147,16.2,21.3,87,0.00,,,0.00,WeatherDisplay:10.37,2013-07-26 02:44:00,
2013-07-25 21:49:00,83.6,79.3,30.01,SSE,160,15.5,19.6,87,0.00,,,0.00,WeatherDisplay:10.37,2013-07-26 02:49:00,
2013-07-25 21:54:00,83.6,79.7,30.01,SE,136,11.4,18.7,88,0.00,,,0.00,WeatherDisplay:10.37,2013-07-26 02:54:00,
2013-07-25 21:59:00,83.6,79.3,30.01,SSE,162,12.4,20.5,87,0.00,CLR,,0.00,WeatherDisplay:10.37,2013-07-26 02:59:00,
2013-07-25 22:04:00,83.4,79.5,30.01,SE,130,14.5,20.7,88,0.00,CLR,,0.00,WeatherDisplay:10.37,2013-07-26 03:04:00,
2013-07-25 22:09:00,83.4,79.1,30.01,SE,144,13.5,18.4,87,0.00,,,0.00,WeatherDisplay:10.37,2013-07-26 03:09:00,
2013-07-25 22:14:00,83.5,79.2,30.01,SE,144,14.4,20.8,87,0.00,,,0.00,WeatherDisplay:10.37,2013-07-26 03:14:00,
2013-07-25 22:19:00,83.4,79.5,30.01,ESE,103,11.1,16.1,88,0.00,,,0.00,WeatherDisplay:10.37,2013-07-26 03:19:00,
2013-07-25 22:24:00,83.5,78.9,30.01,SSE,167,14.0,20.7,86,0.00,CLR,,0.00,WeatherDisplay:10.37,2013-07-26 03:24:00,
2013-07-25 22:29:00,83.2,78.2,30.01,SSE,164,13.2,19.6,85,0.00,CLR,,0.00,WeatherDisplay:10.37,2013-07-26 03:29:00,
2013-07-25 22:34:00,83.3,78.3,30.01,SE,138,16.7,23.3,85,0.00,,,0.00,WeatherDisplay:10.37,2013-07-26 03:34:00,
2013-07-25 22:39:00,83.4,78.8,30.01,SE,126,12.8,19.6,86,0.00,,,0.00,WeatherDisplay:10.37,2013-07-26 03:39:00,
2013-07-25 22:44:00,83.4,79.1,30.01,SE,128,13.1,19.6,87,0.00,,,0.00,WeatherDisplay:10.37,2013-07-26 03:44:00,
2013-07-25 22:49:00,83.4,78.8,30.01,East,93,15.5,21.9,86,0.00,CLR,,0.00,WeatherDisplay:10.37,2013-07-26 03:49:00,
2013-07-25 22:54:00,83.3,79.0,30.01,ESE,109,11.9,19.6,87,0.00,CLR,,0.00,WeatherDisplay:10.37,2013-07-26 03:54:00,
2013-07-25 22:59:00,83.4,79.5,30.01,SE,126,12.0,17.3,88,0.00,CLR,,0.00,WeatherDisplay:10.37,2013-07-26 03:59:00,
2013-07-25 23:01:00,83.4,79.5,30.01,SE,131,13.3,17.5,88,0.00,CLR,,0.00,WeatherDisplay:10.37,2013-07-26 04:01:00,
2013-07-25 23:02:00,83.3,79.4,30.01,SE,127,11.7,17.3,88,0.00,CLR,,0.00,WeatherDisplay:10.37,2013-07-26 04:02:00,
2013-07-25 23:03:00,83.4,79.5,30.01,SE,133,12.2,19.0,88,0.00,CLR,,0.00,WeatherDisplay:10.37,2013-07-26 04:03:00,
2013-07-25 23:05:00,83.2,79.3,30.01,SSE,150,11.8,19.6,88,0.00,CLR,,0.00,WeatherDisplay:10.37,2013-07-26 04:05:00,
2013-07-25 23:10:00,83.2,79.6,30.02,ESE,102,13.9,24.2,89,0.00,,,0.00,WeatherDisplay:10.37,2013-07-26 04:10:00,
2013-07-25 23:15:00,83.3,80.1,30.02,SSE,152,19.6,22.0,90,0.00,CLR,,0.00,WeatherDisplay:10.37,2013-07-26 04:15:00,
2013-07-25 23:20:00,83.3,80.1,30.02,SSE,154,13.5,20.3,90,0.00,,,0.00,WeatherDisplay:10.37,2013-07-26 04:20:00,
2013-07-25 23:25:00,82.9,79.3,30.02,SE,134,12.2,18.4,89,0.00,,,0.00,WeatherDisplay:10.37,2013-07-26 04:25:00,
2013-07-25 23:30:00,83.0,79.4,30.02,SSE,152,13.9,19.6,89,0.00,,,0.00,WeatherDisplay:10.37,2013-07-26 04:30:00,
2013-07-25 23:35:00,82.9,79.3,30.02,SE,138,12.6,20.9,89,0.00,CLR,,0.00,WeatherDisplay:10.37,2013-07-26 04:35:00,
2013-07-25 23:40:00,82.9,79.0,30.02,SSE,157,16.3,21.9,88,0.00,,,0.00,WeatherDisplay:10.37,2013-07-26 04:40:00,
2013-07-25 23:45:00,83.0,79.1,30.02,SSE,148,12.1,23.1,88,0.00,,,0.00,WeatherDisplay:10.37,2013-07-26 04:45:00,
2013-07-25 23:50:00,82.9,78.6,30.02,SSE,158,14.2,21.9,87,0.00,,,0.00,WeatherDisplay:10.37,2013-07-26 04:50:00,
2013-07-25 23:55:00,83.1,79.2,30.02,SSE,147,9.1,18.4,88,0.00,CLR,,0.00,WeatherDisplay:10.37,2013-07-26 04:55:00,